| time (UTC) | temp C | wind direction | speed KPH | gust KPH | rain 1hr cm | rain 24hr cm | rain mn cm | humidity % | barometer mb |
| 20260510230812 | 20 | 236 | 1.6 | 6.4 | 0.00 | 0.41 | 0.03 | 36 | 1018.7 |
| 20260510230307 | 20 | 234 | 1.6 | 6.4 | 0.00 | 0.41 | 0.03 | 36 | 1018.7 |
| 20260510225801 | 20 | 269 | 1.6 | 6.4 | 0.00 | 0.41 | 0.03 | 36 | 1018.8 |
| 20260510225254 | 20 | 163 | 1.6 | 6.4 | 0.00 | 0.41 | 0.03 | 34 | 1018.9 |
| 20260510224748 | 20 | 264 | 3.2 | 9.7 | 0.00 | 0.41 | 0.03 | 34 | 1019.0 |
| 20260510224505 | 20 | 0 | 3.2 | 9.7 | 0.00 | 0.41 | 0.03 | 35 | 1018.8 |
| 20260510223736 | 20 | 313 | 3.2 | 8.0 | 0.00 | 0.41 | 0.03 | 33 | 1018.8 |
| 20260510223231 | 21 | 240 | 1.6 | 6.4 | 0.00 | 0.41 | 0.03 | 35 | 1018.8 |
| 20260510222725 | 21 | 244 | 1.6 | 6.4 | 0.00 | 0.41 | 0.03 | 35 | 1018.8 |
| 20260510222219 | 21 | 298 | 1.6 | 11.3 | 0.00 | 0.41 | 0.03 | 36 | 1018.9 |
| 20260510221713 | 21 | 212 | 3.2 | 11.3 | 0.00 | 0.41 | 0.03 | 34 | 1018.8 |
| 20260510221207 | 21 | 229 | 3.2 | 8.0 | 0.00 | 0.41 | 0.03 | 36 | 1018.7 |
| 20260510220701 | 20 | 346 | 3.2 | 14.5 | 0.00 | 0.41 | 0.03 | 35 | 1018.8 |
| 20260510220155 | 21 | 0 | 3.2 | 14.5 | 0.00 | 0.41 | 0.03 | 33 | 1018.9 |
| 20260510215649 | 21 | 333 | 4.8 | 16.1 | 0.00 | 0.41 | 0.03 | 33 | 1018.9 |
| 20260510215412 | 21 | 226 | 3.2 | 16.1 | 0.00 | 0.41 | 0.03 | 35 | 1018.9 |
| 20260510214637 | 21 | 224 | 3.2 | 8.0 | 0.00 | 0.41 | 0.03 | 35 | 1018.8 |
| 20260510214130 | 20 | 215 | 3.2 | 9.7 | 0.00 | 0.41 | 0.03 | 35 | 1018.8 |
| 20260510213625 | 20 | 325 | 1.6 | 9.7 | 0.00 | 0.41 | 0.03 | 35 | 1018.9 |
| 20260510213119 | 20 | 296 | 3.2 | 9.7 | 0.00 | 0.41 | 0.03 | 34 | 1018.9 |
| 20260510212612 | 20 | 265 | 3.2 | 12.9 | 0.00 | 0.41 | 0.03 | 34 | 1018.9 |
| 20260510212106 | 21 | 236 | 3.2 | 12.9 | 0.00 | 0.41 | 0.03 | 33 | 1018.9 |
| 20260510211601 | 21 | 321 | 3.2 | 11.3 | 0.00 | 0.41 | 0.03 | 32 | 1018.9 |
| 20260510211055 | 21 | 308 | 3.2 | 9.7 | 0.00 | 0.41 | 0.03 | 34 | 1019.0 |
| 20260510210549 | 21 | 244 | 3.2 | 11.3 | 0.00 | 0.41 | 0.03 | 36 | 1019.0 |
| 20260510210043 | 21 | 174 | 3.2 | 11.3 | 0.00 | 0.41 | 0.03 | 34 | 1019.1 |
| 20260510205537 | 21 | 199 | 3.2 | 11.3 | 0.00 | 0.41 | 0.03 | 35 | 1019.2 |
| 20260510205519 | 21 | 224 | 3.2 | 11.3 | 0.00 | 0.41 | 0.03 | 34 | 1019.0 |
| 20260510204524 | 21 | 355 | 3.2 | 11.3 | 0.00 | 0.41 | 0.03 | 33 | 1019.0 |
| 20260510204018 | 21 | 215 | 1.6 | 6.4 | 0.00 | 0.41 | 0.03 | 40 | 1018.9 |
| 20260510203513 | 21 | 232 | 3.2 | 8.0 | 0.00 | 0.41 | 0.03 | 38 | 1018.8 |
| 20260510203007 | 21 | 205 | 3.2 | 9.7 | 0.00 | 0.41 | 0.03 | 38 | 1018.8 |
| 20260510202501 | 21 | 250 | 4.8 | 14.5 | 0.00 | 0.41 | 0.03 | 40 | 1018.9 |
| 20260510201956 | 21 | 210 | 4.8 | 17.7 | 0.00 | 0.41 | 0.03 | 38 | 1019.0 |
| 20260510201449 | 21 | 173 | 4.8 | 17.7 | 0.00 | 0.41 | 0.03 | 36 | 1018.9 |
| 20260510200943 | 20 | 219 | 3.2 | 16.1 | 0.00 | 0.41 | 0.03 | 39 | 1018.8 |
| 20260510200436 | 20 | 295 | 3.2 | 11.3 | 0.00 | 0.41 | 0.03 | 38 | 1018.9 |
| 20260510195930 | 20 | 241 | 3.2 | 12.9 | 0.00 | 0.41 | 0.03 | 38 | 1019.0 |
| 20260510195431 | 21 | 327 | 1.6 | 12.9 | 0.00 | 0.41 | 0.03 | 39 | 1018.9 |
| 20260510194931 | 20 | 117 | 3.2 | 16.1 | 0.00 | 0.41 | 0.03 | 41 | 1018.9 |
| 20260510194431 | 20 | 249 | 4.8 | 16.1 | 0.00 | 0.41 | 0.03 | 41 | 1019.0 |
| 20260510193929 | 20 | 223 | 3.2 | 12.9 | 0.00 | 0.41 | 0.03 | 39 | 1019.0 |
| 20260510193430 | 20 | 322 | 3.2 | 8.0 | 0.00 | 0.41 | 0.03 | 37 | 1019.0 |
| 20260510192929 | 20 | 338 | 3.2 | 9.7 | 0.00 | 0.41 | 0.03 | 39 | 1019.1 |
| 20260510192431 | 20 | 219 | 3.2 | 9.7 | 0.00 | 0.41 | 0.03 | 39 | 1019.1 |
| 20260510191931 | 20 | 252 | 3.2 | 9.7 | 0.00 | 0.41 | 0.03 | 40 | 1019.1 |
| 20260510191647 | 19 | 280 | 3.2 | 9.7 | 0.00 | 0.41 | 0.03 | 40 | 1019.1 |
| 20260510190925 | 19 | 323 | 1.6 | 6.4 | 0.00 | 0.41 | 0.03 | 39 | 1019.0 |
| 20260510190427 | 19 | 251 | 3.2 | 14.5 | 0.00 | 0.41 | 0.03 | 38 | 1019.1 |
| 20260510185925 | 20 | 346 | 3.2 | 14.5 | 0.00 | 0.41 | 0.03 | 38 | 1019.1 |
| 20260510185426 | 20 | 336 | 3.2 | 12.9 | 0.00 | 0.41 | 0.03 | 35 | 1019.0 |
| 20260510184923 | 20 | 207 | 3.2 | 12.9 | 0.00 | 0.41 | 0.03 | 36 | 1019.0 |
| 20260510184423 | 21 | 229 | 3.2 | 11.3 | 0.00 | 0.41 | 0.03 | 36 | 1018.9 |
| 20260510184417 | 21 | 270 | 4.8 | 14.5 | 0.00 | 0.41 | 0.03 | 36 | 1018.9 |
| 20260510183647 | 21 | 198 | 4.8 | 14.5 | 0.00 | 0.41 | 0.03 | 37 | 1018.9 |
| 20260510182922 | 20 | 207 | 4.8 | 12.9 | 0.00 | 0.41 | 0.03 | 38 | 1018.9 |
| 20260510182911 | 20 | 332 | 4.8 | 12.9 | 0.00 | 0.41 | 0.03 | 39 | 1018.8 |
| 20260510182140 | 20 | 212 | 4.8 | 14.5 | 0.00 | 0.41 | 0.03 | 39 | 1018.8 |
| 20260510181646 | 20 | 0 | 4.8 | 14.5 | 0.00 | 0.41 | 0.03 | 41 | 1018.7 |
| 20260510180923 | 20 | 236 | 4.8 | 11.3 | 0.00 | 0.41 | 0.03 | 43 | 1018.7 |
| 20260510180417 | 20 | 241 | 3.2 | 16.1 | 0.00 | 0.41 | 0.03 | 41 | 1018.8 |
| 20260510175917 | 19 | 260 | 3.2 | 16.1 | 0.00 | 0.41 | 0.03 | 46 | 1018.8 |
| 20260510175645 | 18 | 282 | 1.6 | 6.4 | 0.00 | 0.41 | 0.03 | 50 | 1018.8 |
| 20260510174919 | 18 | 0 | 1.6 | 12.9 | 0.00 | 0.41 | 0.03 | 45 | 1018.9 |
| 20260510174643 | 18 | 0 | 3.2 | 12.9 | 0.00 | 0.41 | 0.03 | 45 | 1019.0 |
| 20260510173916 | 18 | 0 | 3.2 | 8.0 | 0.00 | 0.41 | 0.03 | 44 | 1018.9 |
| 20260510173905 | 18 | 0 | 3.2 | 8.0 | 0.00 | 0.41 | 0.03 | 44 | 1019.0 |
| 20260510173358 | 18 | 0 | 3.2 | 11.3 | 0.00 | 0.41 | 0.03 | 40 | 1019.0 |
| 20260510172415 | 18 | 302 | 4.8 | 14.5 | 0.00 | 0.41 | 0.03 | 40 | 1019.2 |
| 20260510172133 | 18 | 342 | 4.8 | 14.5 | 0.00 | 0.41 | 0.03 | 40 | 1019.2 |
| 20260510171639 | 18 | 130 | 4.8 | 14.5 | 0.00 | 0.41 | 0.03 | 42 | 1019.2 |
| 20260510171135 | 18 | 281 | 3.2 | 14.5 | 0.00 | 0.41 | 0.03 | 44 | 1019.2 |
| 20260510170408 | 18 | 320 | 3.2 | 9.7 | 0.00 | 0.41 | 0.03 | 49 | 1019.2 |
| 20260510165902 | 17 | 0 | 1.6 | 8.0 | 0.00 | 0.41 | 0.03 | 53 | 1019.4 |
| 20260510165356 | 17 | 0 | 1.6 | 6.4 | 0.00 | 0.41 | 0.03 | 55 | 1019.4 |
| 20260510164849 | 17 | 0 | 1.6 | 6.4 | 0.00 | 0.41 | 0.03 | 57 | 1019.4 |
| 20260510164344 | 17 | 0 | 1.6 | 12.9 | 0.00 | 0.41 | 0.03 | 54 | 1019.4 |
| 20260510163838 | 17 | 0 | 1.6 | 12.9 | 0.00 | 0.41 | 0.03 | 54 | 1019.4 |
| 20260510163332 | 17 | 0 | 1.6 | 6.4 | 0.00 | 0.41 | 0.03 | 56 | 1019.2 |
| 20260510162826 | 17 | 0 | 1.6 | 6.4 | 0.00 | 0.41 | 0.03 | 55 | 1019.4 |
| 20260510162321 | 17 | 329 | 3.2 | 8.0 | 0.00 | 0.41 | 0.03 | 54 | 1019.5 |
| 20260510161813 | 18 | 302 | 3.2 | 9.7 | 0.00 | 0.41 | 0.03 | 50 | 1019.6 |
| 20260510161308 | 18 | 327 | 3.2 | 11.3 | 0.00 | 0.41 | 0.03 | 56 | 1019.5 |
| 20260510160802 | 18 | 193 | 3.2 | 11.3 | 0.00 | 0.41 | 0.03 | 57 | 1019.6 |
| 20260510160256 | 17 | 307 | 4.8 | 14.5 | 0.00 | 0.41 | 0.03 | 56 | 1019.7 |
| 20260510155750 | 17 | 317 | 3.2 | 14.5 | 0.00 | 0.41 | 0.03 | 59 | 1019.7 |
| 20260510155244 | 16 | 0 | 3.2 | 8.0 | 0.00 | 0.41 | 0.03 | 62 | 1019.6 |
| 20260510154738 | 16 | 0 | 3.2 | 9.7 | 0.00 | 0.41 | 0.03 | 60 | 1019.6 |
| 20260510154232 | 16 | 213 | 3.2 | 12.9 | 0.00 | 0.41 | 0.03 | 56 | 1019.6 |
| 20260510153726 | 16 | 325 | 3.2 | 12.9 | 0.00 | 0.41 | 0.03 | 58 | 1019.4 |
| 20260510153220 | 16 | 324 | 3.2 | 8.0 | 0.00 | 0.41 | 0.03 | 62 | 1019.2 |
| 20260510152714 | 16 | 211 | 3.2 | 11.3 | 0.00 | 0.41 | 0.03 | 60 | 1019.1 |
| 20260510152427 | 16 | 355 | 3.2 | 11.3 | 0.00 | 0.41 | 0.03 | 58 | 1019.0 |
| 20260510151702 | 16 | 152 | 3.2 | 11.3 | 0.00 | 0.41 | 0.03 | 60 | 1018.8 |
| 20260510151156 | 16 | 236 | 1.6 | 6.4 | 0.00 | 0.41 | 0.03 | 62 | 1018.9 |
| 20260510150650 | 16 | 321 | 1.6 | 9.7 | 0.00 | 0.41 | 0.03 | 62 | 1018.8 |
| 20260510150144 | 16 | 0 | 3.2 | 9.7 | 0.00 | 0.41 | 0.03 | 60 | 1018.9 |
| 20260510145638 | 16 | 0 | 3.2 | 11.3 | 0.00 | 0.41 | 0.03 | 59 | 1018.8 |
| 20260510145357 | 16 | 264 | 4.8 | 11.3 | 0.00 | 0.41 | 0.03 | 61 | 1018.8 |
| 20260510144627 | 15 | 224 | 3.2 | 11.3 | 0.00 | 0.41 | 0.03 | 61 | 1018.8 |
| 20260510144120 | 15 | 219 | 1.6 | 12.9 | 0.00 | 0.41 | 0.03 | 62 | 1018.7 |
| 20260510143614 | 15 | 236 | 3.2 | 12.9 | 0.00 | 0.41 | 0.03 | 62 | 1018.5 |
| 20260510143107 | 15 | 0 | 4.8 | 16.1 | 0.00 | 0.41 | 0.03 | 62 | 1018.4 |
| 20260510142834 | 15 | 281 | 3.2 | 16.1 | 0.00 | 0.41 | 0.03 | 63 | 1018.4 |
| 20260510142055 | 15 | 207 | 3.2 | 9.7 | 0.00 | 0.41 | 0.03 | 63 | 1018.3 |
| 20260510141550 | 15 | 242 | 3.2 | 9.7 | 0.00 | 0.41 | 0.03 | 63 | 1018.1 |
| 20260510141044 | 15 | 246 | 3.2 | 8.0 | 0.00 | 0.41 | 0.03 | 64 | 1018.1 |
| 20260510140538 | 15 | 261 | 1.6 | 8.0 | 0.00 | 0.41 | 0.03 | 65 | 1017.9 |
| 20260510140032 | 15 | 265 | 1.6 | 6.4 | 0.00 | 0.41 | 0.03 | 66 | 1018.0 |
| 20260510135525 | 14 | 234 | 1.6 | 6.4 | 0.00 | 0.41 | 0.03 | 67 | 1018.0 |
| 20260510135020 | 14 | 74 | 1.6 | 9.7 | 0.00 | 0.41 | 0.03 | 67 | 1018.1 |
| 20260510134514 | 14 | 225 | 1.6 | 9.7 | 0.00 | 0.41 | 0.03 | 66 | 1018.0 |
| 20260510134008 | 13 | 250 | 1.6 | 12.9 | 0.00 | 0.41 | 0.03 | 68 | 1018.0 |
| 20260510133501 | 13 | 242 | 1.6 | 12.9 | 0.00 | 0.41 | 0.03 | 69 | 1018.0 |
| 20260510132956 | 13 | 223 | 1.6 | 9.7 | 0.00 | 0.41 | 0.03 | 70 | 1018.0 |
| 20260510132450 | 13 | 277 | 3.2 | 8.0 | 0.00 | 0.41 | 0.03 | 73 | 1018.0 |
| 20260510131944 | 13 | 223 | 3.2 | 8.0 | 0.00 | 0.41 | 0.03 | 75 | 1018.0 |
| 20260510131438 | 13 | 233 | 1.6 | 8.0 | 0.00 | 0.41 | 0.03 | 76 | 1017.9 |
| 20260510131158 | 13 | 258 | 1.6 | 8.0 | 0.00 | 0.41 | 0.03 | 79 | 1017.7 |
| 20260510130426 | 13 | 229 | 1.6 | 8.0 | 0.00 | 0.41 | 0.03 | 81 | 1017.7 |
| 20260510125920 | 13 | 208 | 1.6 | 4.8 | 0.00 | 0.41 | 0.03 | 82 | 1017.6 |
| 20260510125414 | 12 | 318 | 1.6 | 11.3 | 0.00 | 0.41 | 0.03 | 83 | 1017.5 |
| 20260510124908 | 12 | 250 | 1.6 | 11.3 | 0.00 | 0.41 | 0.03 | 83 | 1017.5 |
| 20260510124402 | 12 | 231 | 1.6 | 3.2 | 0.00 | 0.41 | 0.03 | 85 | 1017.3 |
| 20260510123856 | 12 | 302 | 1.6 | 4.8 | 0.00 | 0.41 | 0.03 | 86 | 1017.1 |
| 20260510123350 | 12 | 306 | 0.0 | 4.8 | 0.00 | 0.41 | 0.03 | 87 | 1017.1 |
| 20260510122843 | 12 | 259 | 0.0 | 4.8 | 0.00 | 0.41 | 0.03 | 88 | 1017.1 |
| 20260510122344 | 12 | 258 | 0.0 | 4.8 | 0.00 | 0.41 | 0.03 | 89 | 1017.0 |
| 20260510121841 | 12 | 240 | 0.0 | 1.6 | 0.00 | 0.41 | 0.03 | 89 | 1016.9 |
| 20260510121340 | 12 | 240 | 0.0 | 1.6 | 0.00 | 0.41 | 0.03 | 89 | 1017.0 |
| 20260510120842 | 11 | 240 | 0.0 | 4.8 | 0.00 | 0.41 | 0.03 | 89 | 1017.0 |
| 20260510120341 | 11 | 257 | 0.0 | 4.8 | 0.00 | 0.41 | 0.03 | 89 | 1016.8 |
| 20260510115841 | 11 | 194 | 0.0 | 1.6 | 0.00 | 0.41 | 0.03 | 89 | 1016.8 |
| 20260510115342 | 11 | 194 | 0.0 | 1.6 | 0.00 | 0.41 | 0.03 | 89 | 1016.6 |
| 20260510115106 | 11 | 194 | 0.0 | 1.6 | 0.00 | 0.41 | 0.03 | 89 | 1016.4 |
| 20260510114339 | 11 | 194 | 0.0 | 1.6 | 0.00 | 0.41 | 0.03 | 89 | 1016.4 |
| 20260510113838 | 11 | 194 | 0.0 | 1.6 | 0.00 | 0.41 | 0.03 | 89 | 1016.2 |
| 20260510113334 | 11 | 194 | 0.0 | 1.6 | 0.00 | 0.41 | 0.03 | 89 | 1016.2 |
| 20260510112835 | 11 | 190 | 0.0 | 1.6 | 0.00 | 0.41 | 0.03 | 88 | 1015.9 |
| 20260510112334 | 11 | 235 | 0.0 | 1.6 | 0.00 | 0.41 | 0.03 | 88 | 1015.8 |
| 20260510111833 | 11 | 235 | 0.0 | 1.6 | 0.00 | 0.41 | 0.03 | 88 | 1015.6 |
| 20260510111334 | 11 | 342 | 0.0 | 3.2 | 0.00 | 0.41 | 0.03 | 89 | 1015.6 |
| 20260510110831 | 11 | 342 | 0.0 | 3.2 | 0.00 | 0.41 | 0.03 | 89 | 1015.5 |
| 20260510110330 | 12 | 227 | 0.0 | 3.2 | 0.00 | 0.41 | 0.03 | 88 | 1015.4 |
| 20260510105830 | 12 | 240 | 0.0 | 3.2 | 0.00 | 0.41 | 0.03 | 88 | 1015.3 |
| 20260510105555 | 12 | 292 | 0.0 | 3.2 | 0.00 | 0.41 | 0.03 | 88 | 1015.1 |
| 20260510105054 | 12 | 292 | 0.0 | 3.2 | 0.00 | 0.41 | 0.03 | 88 | 1015.1 |
| 20260510104330 | 12 | 225 | 0.0 | 1.6 | 0.00 | 0.41 | 0.03 | 88 | 1015.0 |
| 20260510103832 | 12 | 225 | 0.0 | 4.8 | 0.00 | 0.41 | 0.03 | 88 | 1015.0 |
| 20260510103331 | 12 | 225 | 0.0 | 4.8 | 0.00 | 0.41 | 0.03 | 88 | 1015.0 |
| 20260510103053 | 12 | 191 | 0.0 | 0.0 | 0.00 | 0.41 | 0.03 | 88 | 1014.9 |
| 20260510102331 | 12 | 191 | 0.0 | 0.0 | 0.00 | 0.41 | 0.03 | 88 | 1014.8 |
| 20260510101832 | 12 | 191 | 0.0 | 0.0 | 0.00 | 0.41 | 0.03 | 88 | 1014.5 |
| 20260510101331 | 12 | 191 | 0.0 | 0.0 | 0.00 | 0.41 | 0.03 | 88 | 1014.5 |
| 20260510100832 | 12 | 191 | 0.0 | 3.2 | 0.00 | 0.41 | 0.03 | 88 | 1014.5 |
| 20260510100331 | 12 | 95 | 0.0 | 3.2 | 0.00 | 0.41 | 0.03 | 88 | 1014.6 |
| 20260510100105 | 12 | 250 | 0.0 | 1.6 | 0.00 | 0.41 | 0.03 | 88 | 1014.4 |
| 20260510095330 | 12 | 250 | 0.0 | 1.6 | 0.00 | 0.41 | 0.03 | 88 | 1014.3 |
| 20260510095055 | 12 | 250 | 0.0 | 0.0 | 0.00 | 0.41 | 0.03 | 88 | 1014.5 |
| 20260510094330 | 12 | 250 | 0.0 | 0.0 | 0.00 | 0.41 | 0.03 | 88 | 1014.4 |
| 20260510093825 | 12 | 250 | 0.0 | 0.0 | 0.00 | 0.41 | 0.03 | 88 | 1014.4 |
| 20260510093319 | 12 | 250 | 0.0 | 0.0 | 0.00 | 0.41 | 0.03 | 88 | 1014.2 |
| 20260510092813 | 12 | 250 | 0.0 | 0.0 | 0.00 | 0.41 | 0.03 | 88 | 1014.2 |
| 20260510092307 | 12 | 250 | 0.0 | 0.0 | 0.00 | 0.41 | 0.03 | 88 | 1014.1 |
| 20260510091800 | 12 | 250 | 0.0 | 0.0 | 0.00 | 0.41 | 0.03 | 88 | 1014.2 |
| 20260510091255 | 12 | 250 | 0.0 | 0.0 | 0.00 | 0.41 | 0.03 | 88 | 1014.1 |
| 20260510090749 | 13 | 250 | 0.0 | 0.0 | 0.00 | 0.41 | 0.03 | 88 | 1013.9 |
| 20260510090242 | 13 | 250 | 0.0 | 0.0 | 0.00 | 0.41 | 0.03 | 88 | 1013.8 |
| 20260510085737 | 13 | 250 | 0.0 | 0.0 | 0.00 | 0.41 | 0.03 | 88 | 1013.7 |
| 20260510085231 | 13 | 250 | 0.0 | 0.0 | 0.00 | 0.41 | 0.03 | 88 | 1013.6 |
| 20260510084725 | 13 | 250 | 0.0 | 0.0 | 0.00 | 0.41 | 0.03 | 88 | 1013.5 |
| 20260510084219 | 13 | 250 | 0.0 | 0.0 | 0.00 | 0.41 | 0.03 | 88 | 1013.4 |
| 20260510083713 | 13 | 250 | 0.0 | 0.0 | 0.00 | 0.41 | 0.03 | 88 | 1013.3 |
| 20260510083207 | 13 | 250 | 0.0 | 0.0 | 0.00 | 0.41 | 0.03 | 88 | 1013.2 |
| 20260510082858 | 13 | 250 | 0.0 | 0.0 | 0.00 | 0.41 | 0.03 | 88 | 1013.0 |
| 20260510082744 | 13 | 250 | 0.0 | 0.0 | 0.00 | 0.41 | 0.03 | 88 | 1013.1 |
| 20260510081649 | 13 | 250 | 0.0 | 0.0 | 0.00 | 0.41 | 0.03 | 88 | 1013.0 |
| 20260510081143 | 13 | 250 | 0.0 | 0.0 | 0.00 | 0.41 | 0.03 | 88 | 1012.7 |
| 20260510080637 | 14 | 250 | 0.0 | 0.0 | 0.00 | 0.41 | 0.03 | 88 | 1012.7 |
| 20260510080131 | 14 | 250 | 0.0 | 0.0 | 0.00 | 0.41 | 0.03 | 88 | 1012.6 |
| 20260510080115 | 14 | 250 | 0.0 | 0.0 | 0.00 | 0.41 | 0.03 | 88 | 1012.4 |
| 20260510075118 | 14 | 250 | 0.0 | 0.0 | 0.00 | 0.43 | 0.03 | 88 | 1012.3 |
| 20260510074613 | 14 | 250 | 0.0 | 0.0 | 0.00 | 0.43 | 0.03 | 88 | 1012.3 |
| 20260510074107 | 15 | 250 | 0.0 | 0.0 | 0.00 | 0.43 | 0.03 | 88 | 1012.3 |
| 20260510073821 | 15 | 250 | 0.0 | 1.6 | 0.00 | 0.43 | 0.03 | 88 | 1012.3 |
| 20260510073055 | 15 | 250 | 0.0 | 1.6 | 0.00 | 0.43 | 0.03 | 88 | 1012.2 |
| 20260510072548 | 15 | 250 | 0.0 | 1.6 | 0.00 | 0.43 | 0.03 | 88 | 1012.1 |
| 20260510072044 | 15 | 250 | 0.0 | 1.6 | 0.00 | 0.43 | 0.03 | 88 | 1012.1 |
| 20260510071802 | 15 | 250 | 0.0 | 1.6 | 0.00 | 0.43 | 0.03 | 88 | 1012.1 |
| 20260510071253 | 15 | 250 | 0.0 | 0.0 | 0.03 | 0.43 | 0.03 | 88 | 1012.1 |
| 20260510070750 | 15 | 250 | 0.0 | 0.0 | 0.03 | 0.43 | 0.03 | 88 | 1012.2 |
| 20260510070237 | 15 | 250 | 0.0 | 0.0 | 0.03 | 0.43 | 0.03 | 88 | 1012.2 |
| 20260510065513 | 15 | 250 | 0.0 | 0.0 | 0.03 | 0.43 | 0.03 | 88 | 1012.2 |
| 20260510065007 | 15 | 250 | 0.0 | 0.0 | 0.03 | 0.43 | 0.03 | 88 | 1012.5 |
| 20260510064502 | 15 | 250 | 0.0 | 0.0 | 0.03 | 0.43 | 0.03 | 88 | 1012.5 |
| 20260510063954 | 15 | 250 | 0.0 | 0.0 | 0.03 | 0.43 | 0.03 | 88 | 1012.2 |
| 20260510063449 | 15 | 250 | 0.0 | 1.6 | 0.03 | 0.43 | 0.03 | 88 | 1012.1 |
| 20260510062943 | 15 | 250 | 0.0 | 1.6 | 0.03 | 0.43 | 0.03 | 88 | 1012.1 |
| 20260510062437 | 15 | 250 | 0.0 | 1.6 | 0.03 | 0.43 | 0.03 | 88 | 1012.0 |
| 20260510061930 | 15 | 332 | 0.0 | 1.6 | 0.03 | 0.43 | 0.03 | 88 | 1012.1 |
| 20260510061425 | 15 | 332 | 0.0 | 1.6 | 0.00 | 0.41 | 0.03 | 88 | 1012.1 |
| 20260510061145 | 15 | 234 | 0.0 | 3.2 | 0.00 | 0.41 | 0.00 | 88 | 1012.3 |
| 20260510060413 | 15 | 234 | 0.0 | 3.2 | 0.00 | 0.41 | 0.00 | 88 | 1012.3 |
| 20260510055907 | 15 | 234 | 0.0 | 6.4 | 0.00 | 0.41 | 0.00 | 88 | 1012.0 |
| 20260510055850 | 15 | 239 | 1.6 | 6.4 | 0.00 | 0.41 | 0.00 | 88 | 1011.8 |
| 20260510054855 | 15 | 265 | 1.6 | 8.0 | 0.00 | 0.41 | 0.00 | 88 | 1011.8 |
| 20260510054348 | 15 | 319 | 1.6 | 6.4 | 0.00 | 0.41 | 0.00 | 88 | 1011.6 |
| 20260510053843 | 15 | 325 | 1.6 | 4.8 | 0.00 | 0.41 | 0.00 | 88 | 1011.6 |
| 20260510053337 | 15 | 330 | 1.6 | 8.0 | 0.00 | 0.41 | 0.00 | 88 | 1011.5 |
| 20260510052831 | 15 | 256 | 1.6 | 9.7 | 0.00 | 0.41 | 0.00 | 88 | 1011.5 |
| 20260510052325 | 15 | 329 | 1.6 | 9.7 | 0.05 | 0.41 | 0.00 | 88 | 1011.5 |
| 20260510051819 | 15 | 304 | 1.6 | 6.4 | 0.05 | 0.41 | 0.00 | 88 | 1011.6 |
| 20260510051313 | 16 | 250 | 1.6 | 9.7 | 0.08 | 0.41 | 0.00 | 87 | 1011.7 |
| 20260510050806 | 16 | 244 | 1.6 | 12.9 | 0.10 | 0.41 | 0.00 | 87 | 1011.6 |
| 20260510050301 | 16 | 188 | 1.6 | 12.9 | 0.10 | 0.41 | 0.00 | 87 | 1011.3 |
| 20260510045753 | 16 | 262 | 1.6 | 4.8 | 0.10 | 0.41 | 0.41 | 87 | 1011.0 |
| 20260510045247 | 16 | 285 | 1.6 | 3.2 | 0.13 | 0.41 | 0.41 | 87 | 1010.9 |
| 20260510044741 | 16 | 142 | 1.6 | 4.8 | 0.13 | 0.41 | 0.41 | 87 | 1010.9 |
| 20260510044236 | 16 | 130 | 1.6 | 4.8 | 0.15 | 0.41 | 0.41 | 87 | 1010.8 |
| 20260510043730 | 16 | 53 | 1.6 | 6.4 | 0.15 | 0.41 | 0.41 | 87 | 1010.8 |
| 20260510043224 | 16 | 148 | 1.6 | 6.4 | 0.18 | 0.41 | 0.41 | 87 | 1011.0 |
| 20260510042718 | 16 | 155 | 1.6 | 4.8 | 0.20 | 0.38 | 0.38 | 87 | 1011.1 |
| 20260510042212 | 16 | 336 | 3.2 | 12.9 | 0.20 | 0.36 | 0.36 | 87 | 1011.8 |
| 20260510041706 | 16 | 149 | 3.2 | 12.9 | 0.23 | 0.33 | 0.36 | 87 | 1011.9 |
| 20260510041200 | 16 | 333 | 3.2 | 12.9 | 0.30 | 0.33 | 0.33 | 87 | 1011.5 |
| 20260510040654 | 16 | 331 | 3.2 | 11.3 | 0.28 | 0.30 | 0.30 | 87 | 1011.5 |
| 20260510040148 | 16 | 38 | 4.8 | 16.1 | 0.28 | 0.30 | 0.30 | 87 | 1011.4 |
| 20260510035642 | 16 | 336 | 4.8 | 16.1 | 0.28 | 0.30 | 0.30 | 87 | 1011.2 |
| 20260510035136 | 16 | 344 | 3.2 | 14.5 | 0.25 | 0.28 | 0.28 | 87 | 1011.8 |
| 20260510034630 | 16 | 265 | 4.8 | 16.1 | 0.25 | 0.28 | 0.28 | 87 | 1012.1 |
| 20260510034124 | 16 | 338 | 4.8 | 16.1 | 0.23 | 0.25 | 0.25 | 86 | 1012.0 |
| 20260510033618 | 16 | 238 | 3.2 | 16.1 | 0.20 | 0.23 | 0.23 | 86 | 1012.0 |
| 20260510033112 | 16 | 223 | 4.8 | 27.4 | 0.18 | 0.20 | 0.20 | 85 | 1012.1 |
| 20260510032606 | 17 | 278 | 6.4 | 27.4 | 0.15 | 0.18 | 0.18 | 84 | 1012.2 |
| 20260510032100 | 17 | 201 | 8.0 | 30.6 | 0.13 | 0.18 | 0.15 | 82 | 1012.4 |
| 20260510031554 | 18 | 223 | 11.3 | 41.8 | 0.05 | 0.13 | 0.08 | 80 | 1012.2 |
| 20260510031048 | 19 | 129 | 14.5 | 41.8 | 0.00 | 0.08 | 0.03 | 76 | 1012.0 |
| 20260510030542 | 19 | 190 | 9.7 | 37.0 | 0.00 | 0.10 | 0.03 | 72 | 1011.5 |
| 20260510030521 | 19 | 203 | 1.6 | 20.9 | 0.00 | 0.13 | 0.03 | 71 | 1010.4 |
| 20260510025529 | 19 | 219 | 0.0 | 0.0 | 0.00 | 0.18 | 0.03 | 70 | 1009.3 |
| 20260510025024 | 19 | 219 | 0.0 | 0.0 | 0.00 | 0.20 | 0.03 | 69 | 1009.1 |
| 20260510024518 | 19 | 219 | 0.0 | 0.0 | 0.00 | 0.23 | 0.03 | 69 | 1009.0 |
| 20260510024018 | 19 | 219 | 0.0 | 0.0 | 0.00 | 0.25 | 0.03 | 68 | 1008.9 |
| 20260510023515 | 19 | 219 | 0.0 | 0.0 | 0.00 | 0.28 | 0.03 | 68 | 1008.8 |
| 20260510023015 | 19 | 219 | 0.0 | 0.0 | 0.00 | 0.33 | 0.03 | 67 | 1008.7 |
| 20260510022742 | 19 | 219 | 0.0 | 0.0 | 0.00 | 0.38 | 0.03 | 66 | 1008.6 |
| 20260510022010 | 19 | 219 | 0.0 | 0.0 | 0.00 | 0.46 | 0.03 | 65 | 1008.6 |
| 20260510021728 | 20 | 219 | 0.0 | 0.0 | 0.00 | 0.53 | 0.03 | 64 | 1008.5 |
| 20260510021006 | 20 | 219 | 0.0 | 0.0 | 0.00 | 0.58 | 0.03 | 64 | 1008.5 |
| 20260510020726 | 20 | 219 | 0.0 | 1.6 | 0.00 | 0.66 | 0.03 | 63 | 1008.4 |
| 20260510020002 | 20 | 219 | 0.0 | 1.6 | 0.00 | 0.69 | 0.03 | 63 | 1008.3 |
| 20260510015503 | 20 | 219 | 0.0 | 1.6 | 0.00 | 0.69 | 0.03 | 62 | 1008.2 |
| 20260510015001 | 20 | 219 | 0.0 | 1.6 | 0.00 | 0.74 | 0.03 | 61 | 1008.1 |
| 20260510014500 | 21 | 219 | 0.0 | 1.6 | 0.00 | 0.76 | 0.03 | 59 | 1008.0 |
| 20260510014155 | 21 | 219 | 0.0 | 0.0 | 0.00 | 0.76 | 0.03 | 58 | 1007.9 |
| 20260510014043 | 21 | 219 | 0.0 | 1.6 | 0.00 | 0.76 | 0.03 | 59 | 1007.9 |
| 20260510013443 | 21 | 219 | 0.0 | 0.0 | 0.00 | 0.76 | 0.03 | 58 | 1007.8 |
| 20260510012457 | 22 | 219 | 0.0 | 0.0 | 0.00 | 0.76 | 0.03 | 56 | 1007.9 |
| 20260510011958 | 22 | 219 | 0.0 | 0.0 | 0.00 | 0.76 | 0.03 | 55 | 1007.8 |
| 20260510011453 | 22 | 219 | 0.0 | 0.0 | 0.00 | 0.76 | 0.03 | 54 | 1007.9 |
| 20260510010953 | 23 | 219 | 0.0 | 0.0 | 0.00 | 0.76 | 0.03 | 52 | 1007.8 |
| 20260510010454 | 23 | 219 | 0.0 | 0.0 | 0.00 | 0.76 | 0.03 | 51 | 1007.8 |
| 20260510005953 | 23 | 219 | 0.0 | 1.6 | 0.00 | 0.76 | 0.03 | 51 | 1007.8 |
| 20260510005453 | 23 | 219 | 0.0 | 1.6 | 0.00 | 0.76 | 0.03 | 49 | 1007.8 |
| 20260510004953 | 24 | 219 | 0.0 | 1.6 | 0.00 | 0.79 | 0.03 | 49 | 1007.6 |
| 20260510004454 | 24 | 219 | 0.0 | 0.0 | 0.00 | 0.79 | 0.03 | 48 | 1007.6 |
| 20260510003954 | 25 | 235 | 0.0 | 0.0 | 0.00 | 0.79 | 0.03 | 47 | 1007.5 |
| 20260510003453 | 25 | 219 | 0.0 | 0.0 | 0.00 | 0.79 | 0.03 | 46 | 1007.5 |
| 20260510002950 | 25 | 219 | 0.0 | 1.6 | 0.00 | 0.79 | 0.03 | 46 | 1007.5 |
| 20260510002449 | 25 | 219 | 0.0 | 3.2 | 0.00 | 0.79 | 0.03 | 44 | 1007.5 |
| 20260510001948 | 26 | 219 | 0.0 | 3.2 | 0.00 | 0.79 | 0.03 | 43 | 1007.4 |
| 20260510001448 | 26 | 219 | 1.6 | 4.8 | 0.00 | 0.79 | 0.03 | 41 | 1007.4 |
| 20260510000951 | 26 | 229 | 3.2 | 8.0 | 0.00 | 0.79 | 0.03 | 40 | 1007.4 |
| 20260510000450 | 26 | 193 | 3.2 | 8.0 | 0.00 | 0.79 | 0.03 | 39 | 1007.3 |
| 20260509235948 | 26 | 191 | 3.2 | 11.3 | 0.00 | 0.79 | 0.03 | 38 | 1007.2 |
| 20260509235926 | 27 | 198 | 3.2 | 11.3 | 0.00 | 0.79 | 0.03 | 38 | 1007.2 |
| 20260509234946 | 27 | 207 | 1.6 | 6.4 | 0.00 | 0.79 | 0.03 | 38 | 1007.2 |
| 20260509234447 | 27 | 200 | 1.6 | 9.7 | 0.00 | 0.79 | 0.03 | 37 | 1007.2 |
| 20260509234201 | 27 | 204 | 3.2 | 9.7 | 0.00 | 0.79 | 0.03 | 36 | 1007.2 |
| 20260509233435 | 27 | 202 | 1.6 | 6.4 | 0.00 | 0.79 | 0.03 | 36 | 1007.2 |
| 20260509232928 | 27 | 192 | 1.6 | 6.4 | 0.00 | 0.79 | 0.03 | 36 | 1007.2 |
| 20260509232423 | 27 | 192 | 1.6 | 4.8 | 0.00 | 0.79 | 0.03 | 36 | 1007.2 |
| 20260509231917 | 27 | 192 | 3.2 | 6.4 | 0.00 | 0.79 | 0.03 | 35 | 1007.2 |
| 20260509231411 | 28 | 209 | 3.2 | 9.7 | 0.00 | 0.79 | 0.03 | 33 | 1007.2 |